| time (UTC) | temp F | wind direction | speed MPH | gust MPH | rain 1hr in | rain 24hr in | rain mn in | humidity % | barometer mb |
| 20260502232335 | 70 | 228 | 2.0 | 7.0 | 0.00 | 0.00 | 0.00 | 26 | 1015.1 |
| 20260502231340 | 71 | 171 | 1.0 | 5.0 | 0.00 | 0.00 | 0.00 | 24 | 1015.2 |
| 20260502230349 | 71 | 141 | 1.0 | 6.0 | 0.00 | 0.00 | 0.00 | 25 | 1015.4 |
| 20260502225334 | 71 | 262 | 1.0 | 6.0 | 0.00 | 0.00 | 0.00 | 25 | 1015.5 |
| 20260502224339 | 70 | 227 | 3.0 | 6.0 | 0.00 | 0.00 | 0.00 | 24 | 1015.6 |
| 20260502223328 | 70 | 175 | 2.0 | 6.0 | 0.00 | 0.00 | 0.00 | 27 | 1015.8 |
| 20260502222338 | 70 | 155 | 1.0 | 6.0 | 0.00 | 0.00 | 0.00 | 26 | 1016.0 |
| 20260502221325 | 70 | 145 | 2.0 | 7.0 | 0.00 | 0.00 | 0.00 | 25 | 1016.2 |
| 20260502220336 | 70 | 208 | 2.0 | 7.0 | 0.00 | 0.00 | 0.00 | 25 | 1016.3 |
| 20260502215326 | 70 | 132 | 2.0 | 5.0 | 0.00 | 0.00 | 0.00 | 25 | 1016.4 |
| 20260502214328 | 70 | 349 | 2.0 | 5.0 | 0.00 | 0.00 | 0.00 | 25 | 1016.7 |
| 20260502213355 | 69 | 82 | 2.0 | 7.0 | 0.00 | 0.00 | 0.00 | 28 | 1016.8 |
| 20260502212328 | 69 | 12 | 1.0 | 8.0 | 0.00 | 0.00 | 0.00 | 27 | 1016.9 |
| 20260502211350 | 69 | 202 | 1.0 | 9.0 | 0.00 | 0.00 | 0.00 | 28 | 1017.1 |
| 20260502210337 | 69 | 140 | 3.0 | 5.0 | 0.00 | 0.00 | 0.00 | 28 | 1017.3 |
| 20260502205326 | 68 | 151 | 1.0 | 6.0 | 0.00 | 0.00 | 0.00 | 27 | 1017.4 |
| 20260502204358 | 68 | 140 | 1.0 | 7.0 | 0.00 | 0.00 | 0.00 | 28 | 1017.7 |
| 20260502203326 | 68 | 190 | 1.0 | 4.0 | 0.00 | 0.00 | 0.00 | 28 | 1017.9 |
| 20260502202355 | 67 | 157 | 3.0 | 8.0 | 0.00 | 0.00 | 0.00 | 28 | 1018.1 |
| 20260502201338 | 67 | 19 | 2.0 | 6.0 | 0.00 | 0.00 | 0.00 | 32 | 1018.2 |
| 20260502200329 | 66 | 130 | 3.0 | 8.0 | 0.00 | 0.00 | 0.00 | 31 | 1018.3 |
| 20260502195402 | 67 | 356 | 3.0 | 7.0 | 0.00 | 0.00 | 0.00 | 29 | 1018.5 |
| 20260502194346 | 66 | 318 | 1.0 | 12.0 | 0.00 | 0.00 | 0.00 | 31 | 1018.8 |
| 20260502193327 | 67 | 162 | 2.0 | 4.0 | 0.00 | 0.00 | 0.00 | 31 | 1018.9 |
| 20260502192359 | 66 | 154 | 2.0 | 7.0 | 0.00 | 0.00 | 0.00 | 30 | 1019.2 |
| 20260502191339 | 66 | 7 | 1.0 | 4.0 | 0.00 | 0.00 | 0.00 | 31 | 1019.2 |
| 20260502190347 | 65 | 111 | 1.0 | 4.0 | 0.00 | 0.00 | 0.00 | 33 | 1019.5 |
| 20260502185337 | 64 | 146 | 1.0 | 6.0 | 0.00 | 0.00 | 0.00 | 34 | 1019.6 |
| 20260502184325 | 63 | 18 | 3.0 | 8.0 | 0.00 | 0.00 | 0.00 | 34 | 1019.9 |
| 20260502183335 | 64 | 102 | 2.0 | 7.0 | 0.00 | 0.00 | 0.00 | 35 | 1020.0 |
| 20260502182326 | 63 | 174 | 2.0 | 6.0 | 0.00 | 0.00 | 0.00 | 35 | 1020.2 |
| 20260502181349 | 62 | 26 | 2.0 | 6.0 | 0.00 | 0.00 | 0.00 | 36 | 1020.2 |
| 20260502180413 | 62 | 5 | 2.0 | 6.0 | 0.00 | 0.00 | 0.00 | 39 | 1020.4 |
| 20260502170346 | 60 | 90 | 2.0 | 9.0 | 0.00 | 0.00 | 0.00 | 37 | 1021.2 |
| 20260502164331 | 59 | 185 | 2.0 | 5.0 | 0.00 | 0.00 | 0.00 | 37 | 1021.3 |
| 20260502163338 | 58 | 258 | 2.0 | 5.0 | 0.00 | 0.00 | 0.00 | 37 | 1021.4 |
| 20260502162325 | 57 | 95 | 2.0 | 6.0 | 0.00 | 0.00 | 0.00 | 38 | 1021.5 |
| 20260502161344 | 57 | 109 | 3.0 | 7.0 | 0.00 | 0.00 | 0.00 | 38 | 1021.6 |
| 20260502160329 | 56 | 351 | 2.0 | 8.0 | 0.00 | 0.00 | 0.00 | 38 | 1021.7 |
| 20260502152339 | 55 | 102 | 1.0 | 6.0 | 0.00 | 0.00 | 0.00 | 46 | 1021.9 |
| 20260502151325 | 54 | 265 | 2.0 | 5.0 | 0.00 | 0.00 | 0.00 | 43 | 1021.9 |
| 20260502150334 | 53 | 230 | 1.0 | 3.0 | 0.00 | 0.00 | 0.00 | 47 | 1021.8 |
| 20260502130410 | 39 | 358 | 0.0 | 1.0 | 0.00 | 0.00 | 0.00 | 73 | 1022.0 |
| 20260502123336 | 35 | 17 | 0.0 | 0.0 | 0.00 | 0.00 | 0.00 | 79 | 1021.8 |
| 20260502122326 | 34 | 17 | 0.0 | 0.0 | 0.00 | 0.00 | 0.00 | 82 | 1021.8 |
| 20260502121358 | 33 | 17 | 0.0 | 0.0 | 0.00 | 0.00 | 0.00 | 83 | 1021.8 |
| 20260502120344 | 33 | 17 | 0.0 | 1.0 | 0.00 | 0.00 | 0.00 | 82 | 1021.7 |
| 20260502115329 | 33 | 17 | 0.0 | 0.0 | 0.00 | 0.00 | 0.00 | 82 | 1021.7 |
| 20260502114332 | 33 | 17 | 0.0 | 0.0 | 0.00 | 0.00 | 0.00 | 82 | 1021.6 |
| 20260502112355 | 33 | 3 | 0.0 | 0.0 | 0.00 | 0.00 | 0.00 | 81 | 1021.5 |
| 20260502111342 | 33 | 3 | 0.0 | 0.0 | 0.00 | 0.00 | 0.00 | 80 | 1021.4 |
| 20260502110353 | 33 | 3 | 0.0 | 0.0 | 0.00 | 0.00 | 0.00 | 80 | 1021.4 |
| 20260502105346 | 33 | 3 | 0.0 | 0.0 | 0.00 | 0.00 | 0.00 | 80 | 1021.4 |
| 20260502104329 | 33 | 3 | 0.0 | 0.0 | 0.00 | 0.00 | 0.00 | 80 | 1021.3 |
| 20260502103322 | 33 | 3 | 0.0 | 0.0 | 0.00 | 0.00 | 0.00 | 79 | 1021.3 |
| 20260502102335 | 33 | 3 | 0.0 | 0.0 | 0.00 | 0.00 | 0.00 | 79 | 1021.3 |
| 20260502101340 | 33 | 3 | 0.0 | 0.0 | 0.00 | 0.00 | 0.00 | 79 | 1021.2 |
| 20260502100332 | 33 | 3 | 0.0 | 0.0 | 0.00 | 0.00 | 0.00 | 79 | 1021.1 |
| 20260502091341 | 34 | 3 | 0.0 | 0.0 | 0.00 | 0.00 | 0.00 | 78 | 1020.9 |
| 20260502090406 | 34 | 3 | 0.0 | 0.0 | 0.00 | 0.00 | 0.00 | 77 | 1020.9 |
| 20260502071325 | 37 | 3 | 0.0 | 0.0 | 0.00 | 0.00 | 0.00 | 70 | 1020.9 |
| 20260502070358 | 37 | 3 | 0.0 | 0.0 | 0.00 | 0.00 | 0.00 | 70 | 1021.0 |
| 20260502065329 | 37 | 3 | 0.0 | 0.0 | 0.00 | 0.00 | 0.00 | 69 | 1020.9 |
| 20260502064337 | 37 | 3 | 0.0 | 0.0 | 0.00 | 0.00 | 0.00 | 69 | 1020.9 |
| 20260502063346 | 37 | 3 | 0.0 | 0.0 | 0.00 | 0.00 | 0.00 | 69 | 1021.0 |
| 20260502062330 | 38 | 3 | 0.0 | 0.0 | 0.00 | 0.00 | 0.00 | 68 | 1020.9 |
| 20260502061359 | 38 | 3 | 0.0 | 0.0 | 0.00 | 0.00 | 0.00 | 68 | 1020.8 |
| 20260502060331 | 38 | 3 | 0.0 | 0.0 | 0.00 | 0.00 | 0.00 | 67 | 1020.8 |
| 20260502055324 | 38 | 3 | 0.0 | 0.0 | 0.00 | 0.00 | 0.00 | 65 | 1020.7 |
| 20260502054329 | 39 | 3 | 0.0 | 0.0 | 0.00 | 0.00 | 0.00 | 65 | 1020.6 |
| 20260502053334 | 39 | 3 | 0.0 | 0.0 | 0.00 | 0.00 | 0.00 | 63 | 1020.6 |
| 20260502052341 | 39 | 3 | 0.0 | 0.0 | 0.00 | 0.00 | 0.00 | 62 | 1020.6 |
| 20260502051324 | 40 | 3 | 0.0 | 0.0 | 0.00 | 0.00 | 0.00 | 62 | 1020.5 |
| 20260502050334 | 40 | 3 | 0.0 | 0.0 | 0.00 | 0.00 | 0.00 | 61 | 1020.4 |
| 20260502045326 | 40 | 3 | 0.0 | 0.0 | 0.00 | 0.00 | 0.00 | 62 | 1020.4 |
| 20260502044349 | 41 | 3 | 0.0 | 0.0 | 0.00 | 0.00 | 0.00 | 60 | 1020.3 |
| 20260502043329 | 41 | 3 | 0.0 | 0.0 | 0.00 | 0.00 | 0.00 | 59 | 1020.3 |
| 20260502042339 | 41 | 3 | 0.0 | 0.0 | 0.00 | 0.00 | 0.00 | 58 | 1020.3 |
| 20260502041346 | 42 | 3 | 0.0 | 0.0 | 0.00 | 0.00 | 0.00 | 57 | 1020.3 |
| 20260502040332 | 42 | 3 | 0.0 | 0.0 | 0.00 | 0.00 | 0.00 | 56 | 1020.3 |
| 20260502035345 | 43 | 3 | 0.0 | 0.0 | 0.00 | 0.00 | 0.00 | 54 | 1020.2 |
| 20260502034325 | 44 | 3 | 0.0 | 0.0 | 0.00 | 0.00 | 0.00 | 53 | 1020.2 |
| 20260502033336 | 44 | 3 | 0.0 | 0.0 | 0.00 | 0.00 | 0.00 | 51 | 1020.2 |
| 20260502032328 | 45 | 3 | 0.0 | 0.0 | 0.00 | 0.00 | 0.00 | 49 | 1020.1 |
| 20260502031335 | 46 | 3 | 0.0 | 0.0 | 0.00 | 0.00 | 0.00 | 47 | 1020.1 |
| 20260502030404 | 47 | 3 | 0.0 | 0.0 | 0.00 | 0.00 | 0.00 | 46 | 1020.0 |
| 20260502025351 | 48 | 3 | 0.0 | 0.0 | 0.00 | 0.00 | 0.00 | 46 | 1019.8 |
| 20260502024341 | 49 | 3 | 0.0 | 1.0 | 0.00 | 0.00 | 0.00 | 45 | 1019.7 |
| 20260502023346 | 49 | 3 | 0.0 | 1.0 | 0.00 | 0.00 | 0.00 | 43 | 1019.6 |
| 20260502022331 | 50 | 3 | 0.0 | 2.0 | 0.00 | 0.00 | 0.00 | 41 | 1019.5 |
| 20260502021344 | 51 | 20 | 1.0 | 3.0 | 0.00 | 0.00 | 0.00 | 41 | 1019.3 |
| 20260502020324 | 51 | 11 | 1.0 | 3.0 | 0.00 | 0.00 | 0.00 | 40 | 1019.3 |
| 20260502015334 | 52 | 7 | 2.0 | 4.0 | 0.00 | 0.00 | 0.00 | 40 | 1019.1 |
| 20260502014339 | 52 | 16 | 1.0 | 4.0 | 0.00 | 0.00 | 0.00 | 39 | 1019.0 |
| 20260502013345 | 52 | 13 | 3.0 | 4.0 | 0.00 | 0.00 | 0.00 | 38 | 1018.9 |
| 20260502012351 | 53 | 17 | 3.0 | 7.0 | 0.00 | 0.00 | 0.00 | 37 | 1018.8 |
| 20260502011338 | 53 | 9 | 1.0 | 5.0 | 0.00 | 0.00 | 0.00 | 38 | 1018.6 |
| 20260502010327 | 53 | 16 | 1.0 | 5.0 | 0.00 | 0.00 | 0.00 | 38 | 1018.6 |
| 20260502005340 | 54 | 326 | 2.0 | 6.0 | 0.00 | 0.00 | 0.00 | 36 | 1018.5 |
| 20260502004328 | 54 | 5 | 2.0 | 7.0 | 0.00 | 0.00 | 0.00 | 36 | 1018.4 |
| 20260502003338 | 54 | 343 | 3.0 | 8.0 | 0.00 | 0.00 | 0.00 | 35 | 1018.3 |
| 20260502002353 | 55 | 347 | 2.0 | 9.0 | 0.00 | 0.00 | 0.00 | 36 | 1018.3 |
| 20260502001346 | 55 | 347 | 4.0 | 11.0 | 0.00 | 0.00 | 0.00 | 34 | 1018.2 |
| 20260502000333 | 55 | 351 | 5.0 | 8.0 | 0.00 | 0.00 | 0.00 | 34 | 1018.2 |
| 20260501235324 | 56 | 17 | 3.0 | 8.0 | 0.00 | 0.00 | 0.00 | 35 | 1018.3 |
| 20260501234332 | 57 | 345 | 6.0 | 11.0 | 0.00 | 0.00 | 0.00 | 33 | 1018.2 |
| 20260501233346 | 57 | 9 | 4.0 | 12.0 | 0.00 | 0.00 | 0.00 | 33 | 1018.1 |
| 20260501232353 | 57 | 24 | 7.0 | 11.0 | 0.00 | 0.00 | 0.00 | 31 | 1018.1 |